Tracking 30703 objects as of 12-Jun-2025
HD Live streaming from Space Station
objects crossing your sky now

SL-8 DEB

Track SL-8 DEB now!
10-day predictions


NORAD ID: 29286
Int'l Code: 1981-120Q
Perigee: 1,658.5 km
Apogee: 1,663.9 km
Inclination: 83.0 °
Period: 119.4 minutes
Semi major axis: 8032 km
RCS: 0.0083 m2 (small)
Launch date: December 17, 1981
Source: Commonwealth of Independent States (former USSR) (CIS)
Launch site: PLESETSK MISSILE AND SPACE COMPLEX (PKMTR)

Note: This is SATELLITE DEBRIS
Your satellite tracking list
Your tracking list is empty




NASA's NSSDC Master Catalog

Two Line Element Set (TLE):
1 29286U 81120Q   25162.64423771  .00000130  00000-0  13924-2 0  9994
2 29286  82.9758 288.8272 0003358 156.4173 218.0853 12.06016610542945
Source of the keplerian elements: AFSPC